Regional Weather Roundup
Issued by NWS

Home | Current Version | Previous Version | Text Only | Print | Product List | Glossary On
Versions: 1 2 3 4 5 6 7 8 9 10 11 12 13 14 15 16 17 18 19 20 21 22 23 24 25 26 27 28 29 30 31 32 33 34 35 36 37 38 39 40 41 42 43 44 45 46 47 48 49 50
000
ASUS43 KOAX 180410
RWRNE

WEATHER ROUNDUP FOR NEBRASKA
NATIONAL WEATHER SERVICE OMAHA NE
1100 PM CDT THU AUG 17 2017

NOTES: SATELLITE DATA IS BEING USED TO AUGMENT CLOUD COVER ABOVE
       12000 FEET.
       "FAIR" INDICATES FEW OR NO CLOUDS BELOW 12,000 FEET WITH NO
       SIGNIFICANT WEATHER AND/OR OBSTRUCTIONS TO VISIBILITY.


NEZ001>004-019>022-054>056-180500-
NEBRASKA PANHANDLE

CITY           SKY/WX    TMP DP  RH WIND       PRES   REMARKS
SCOTTSBLUFF    CLEAR     68  48  48 NE7G18    30.06R
ALLIANCE       PTCLDY    62  51  67 MISG      30.03S
CHADRON        CLEAR     59  53  80 SW6       30.02R
GORDON         FAIR      60  51  70 CALM      29.99F
KIMBALL        CLOUDY    67  48  50 NE14      30.11R
SIDNEY         CLEAR     67  49  52 N10       30.08R
$$

NEZ057>060-069>072-079>082-180500-
SOUTHWEST NEBRASKA

CITY           SKY/WX    TMP DP  RH WIND       PRES   REMARKS
NORTH PLATTE   CLOUDY    67  59  75 CALM      29.93S
IMPERIAL       CLEAR     62  54  74 S7        29.98S
LEXINGTON      CLOUDY    73  57  59 SE8       29.92F
MCCOOK         CLOUDY    70  54  56 SW12      29.93R
OGALLALA       CLEAR     67  58  72 W7        29.97S
$$

NEZ005>010-023>029-035>040-094-180500-
NORTH CENTRAL NEBRASKA

CITY           SKY/WX    TMP DP  RH WIND       PRES   REMARKS
VALENTINE      CLOUDY    70  54  56 S7        29.90F
AINSWORTH      TSTM      63  60  93 SE10      30.00R
BROKEN BOW     CLOUDY    71  60  68 S5        29.92S
O`NEILL        CLOUDY    71  62  73 NW26G40   29.96R THUNDER
ORD            CLOUDY    70  61  73 CALM      29.89F
THEDFORD       CLOUDY    60  57  91 NE17G26   30.02R
$$

NEZ041-046>049-061>064-073>077-083>087-180500-
SOUTH CENTRAL NEBRASKA

CITY           SKY/WX    TMP DP  RH WIND       PRES   REMARKS
GRAND ISLAND   CLOUDY    71  63  75 S9        29.92F
AURORA         CLEAR     72  62  70 S8        29.92F
HASTINGS       PTCLDY    72  59  63 S9        29.95F
HEBRON         CLEAR     70  61  75 S7        29.95F
HOLDREGE       MOCLDY    71  56  60 S13       29.94S
KEARNEY        MOCLDY    72  59  63 S12       29.93F
YORK           CLEAR     66  64  94 S7        29.94F
$$

NEZ011>018-030>034-042>045-180500-
NORTHEAST NEBRASKA

CITY           SKY/WX    TMP DP  RH WIND       PRES   REMARKS
NORFOLK        CLEAR     66  62  87 E6        29.91S
ALBION         CLEAR     69  65  87 SE3       29.91F
BLAIR          RAIN      67  64  89 CALM      29.93S
COLUMBUS       CLEAR     69  64  84 S3        29.92F
FREMONT        CLEAR     68  64  88 SE5       29.92S
TEKAMAH        CLEAR     63  61  93 CALM      29.91R
WAYNE          CLEAR     62  60  91 S5        29.92R
$$

NEZ050>053-065>068-078-088>093-180500-
SOUTHEAST NEBRASKA

CITY           SKY/WX    TMP DP  RH WIND       PRES   REMARKS
LINCOLN        CLEAR     71  63  75 S5        29.93F
OMAHA EPPLEY   CLEAR     70  62  76 SE3       29.92R
BEATRICE       CLEAR     68  62  81 CALM      29.95S
FALLS CITY     CLEAR     67  61  81 S5        29.94R
NEBRASKA CITY  CLEAR     67  65  91 SW5       29.94S
PLATTSMOUTH    CLEAR     69  61  76 S3        29.93S
$$

NEZ044-045-051>053-067-180500-
OMAHA AREA

CITY           SKY/WX    TMP DP  RH WIND       PRES   REMARKS
OMAHA EPPLEY   CLEAR     70  62  76 SE3       29.92R
BLAIR          RAIN      67  64  89 CALM      29.93S
FREMONT        CLEAR     68  64  88 SE5       29.92S
MILLARD        CLEAR     69  65  88 CALM      29.93S
OFFUTT AFB     CLEAR     62  59  91 CALM      29.92R
PLATTSMOUTH    CLEAR     69  61  76 S3        29.93S
WAHOO            N/A     67  65  94 SE3       29.92S
$$




USA.gov is the U.S. government's official web portal to all federal, state and local government web resources and services.